This is the latest recevied weather packets stored in our database for station/object WX5KDM. If no packets are shown the sender has not sent any weather packets the latest 10 day(s).
| Time | Temp. | Humidity | Pressure | Rain* | Wind** | Luminosity | Snow |
|---|---|---|---|---|---|---|---|
| 1777298037 | 22.78° C | 86% | 1015.2 hPa | 0 mm | - | - | - |
| 1777297731 | 22.22° C | 87% | 1015.1 hPa | 0 mm | - | - | - |
| 1777297431 | 22.22° C | 87% | 1015.2 hPa | 0 mm | - | - | - |
| 1777297127 | 21.67° C | 87% | 1015.2 hPa | 0 mm | - | - | - |
| 1777296824 | 21.67° C | 87% | 1015.3 hPa | 0 mm | - | - | - |
| 1777296520 | 22.22° C | 86% | 1015.3 hPa | 0 mm | - | - | - |
| 1777296216 | 22.22° C | 87% | 1015.4 hPa | 0 mm | - | - | - |
| 1777295912 | 21.67° C | 87% | 1015.3 hPa | 0 mm | - | - | - |
| 1777295609 | 21.67° C | 88% | 1015.3 hPa | 0 mm | - | - | - |
| 1777295306 | 21.11° C | 88% | 1015.3 hPa | 0 mm | - | - | - |
| 1777295005 | 21.11° C | 89% | 1015.1 hPa | 0 mm | - | - | - |
| 1777294701 | 21.11° C | 89% | 1015 hPa | 0 mm | - | - | - |
| 1777294396 | 21.11° C | 89% | 1015.2 hPa | 0 mm | - | - | - |
| 1777294093 | 20.56° C | 89% | 1015 hPa | 0 mm | - | - | - |
| 1777293789 | 20.56° C | 89% | 1015 hPa | 0 mm | - | - | - |
| 1777293484 | 20.56° C | 89% | 1014.9 hPa | 0 mm | - | - | - |
| 1777293180 | 20.56° C | 90% | 1015 hPa | 0 mm | - | - | - |
| 1777292880 | 20.56° C | 90% | 1015 hPa | 0 mm | - | - | - |
| 1777292576 | 20.56° C | 90% | 1014.7 hPa | 0 mm | - | - | - |
| 1777292271 | 20° C | 90% | 1014.8 hPa | 0 mm | - | - | - |
| 1777291968 | 20° C | 91% | 1014.6 hPa | 0 mm | - | - | - |
| 1777291665 | 20° C | 91% | 1014.6 hPa | 0 mm | - | - | - |
| 1777291362 | 19.44° C | 92% | 1014.5 hPa | 0 mm | - | - | - |
| 1777291059 | 19.44° C | 92% | 1014.6 hPa | 0 mm | - | - | - |
| 1777290755 | 19.44° C | 92% | 1014.7 hPa | 0 mm | - | - | - |
* Rain latest hour (hover to see other rain measurements)
** Current wind speed in m/s (hover to see current wind gust speed)